Notices

What's New in latest Release from April 7th, 2021:

- Updated Glossary, including Speed of Maximum Gust, and Total Hourly Precipitation

- Updated national and regional climate services offices contacts and prices information

- Addition of station inventory lists for 1981-2010, 1971-2000, and 1961-1990 Normals.

If you haven't already, please take our survey and provide feedback about our website: https://eccc.sondage-survey.ca/f/LanguageSelection.aspx?s=442ca660-fcf1-47c0-95a9-59707d6fd709

Hourly Data Report for September 25, 2017

VICTORIA UNIVERSITY CS
BRITISH COLUMBIA

48°27'25.200" N
123°18'16.600" W
60.10 m
1018598
71783
WYJ

Download Data

Hourly Data (September 2017)
Hourly Data Report for September 25, 2017
TIME
LST
Temp Definition
°C
Dew Point Definition
°C
Rel Hum Definition
%
Precip. Amount Definition
mm

Wind Dir Definition
10's deg

Wind Spd Definition
km/h
Visibility Definition
km
Stn Press Definition
kPa
Hmdx Definition


Wind Chill Definition


Weather Definition


00:00 12.4 11.0 91 0.0 20 4   101.08     LegendNANA
01:00 12.0 10.9 93 0.0 22 3   101.10     LegendNANA
02:00 11.9 10.9 94 0.0 21 2   101.07     LegendNANA
03:00 11.7 10.9 95 0.0 23 4   101.07     LegendNANA
04:00 11.9 11.3 96 0.6 16 2   101.10     LegendNANA
05:00 11.8 11.3 97 0.9 24 4   101.10     LegendNANA
06:00 11.8 11.5 98 0.8 24 5   101.11     LegendNANA
07:00 12.2 11.9 98 0.0 24 5   101.12     LegendNANA
08:00 13.4 13.0 98 0.2 23 3   101.14     LegendNANA
09:00 14.3 13.5 95 0.0 23 3   101.15     LegendNANA
10:00 13.2 12.7 97 0.3 16 6   101.18     LegendNANA
11:00 13.8 12.9 95 0.0 11 2   101.17     LegendNANA
12:00 14.5 12.8 90 0.0 13 2   101.21     LegendNANA
13:00 15.0 13.0 88 0.0 11 2   101.21     LegendNANA
14:00 15.5 12.2 81 0.0 10 2   101.21     LegendNANA
15:00 16.4 12.5 78 0.0 11 2   101.17     LegendNANA
16:00 15.9 12.5 80 0.0 8 2   101.18     LegendNANA
17:00 15.8 12.4 80 0.0 6 1   101.20     LegendNANA
18:00 15.1 12.6 85 0.0   0   101.20     LegendNANA
19:00 14.0 12.6 91 0.0 1 1   101.22     LegendNANA
20:00 13.5 12.3 92 0.0 32 3   101.26     LegendNANA
21:00 12.6 11.7 94 0.0 33 4   101.28     LegendNANA
22:00 13.4 12.1 91 0.0 1 6   101.29     LegendNANA
23:00 13.3 12.1 92 0.0 36 6   101.30     LegendNANA

Notes on Data Quality.

Legend

  • E = Estimated
  • M = Missing
  • NA = Not Available*
  • [empty] = Indicates an unobserved value
Date modified: